This is the latest recevied weather packets stored in our database for station/object WZ9ZZZ-1. If no packets are shown the sender has not sent any weather packets the latest 1 day(s).
| Time | Temp. | Humidity | Pressure | Rain* | Wind** | Luminosity | Snow |
|---|---|---|---|---|---|---|---|
| 1778040686 | 25° C | 91% | 1013.3 hPa | 0 mm | 1.79 m/s, 202° | 0 W/m² | - |
| 1778040384 | 25° C | 91% | 1013.1 hPa | 0 mm | 0.45 m/s, 169° | 0 W/m² | - |
| 1778040080 | 25° C | 91% | 1013.1 hPa | 0 mm | 0.89 m/s, 244° | 0 W/m² | - |
| 1778039777 | 25° C | 91% | 1013.1 hPa | 0 mm | 1.79 m/s, 210° | 0 W/m² | - |
| 1778039474 | 25° C | 91% | 1013.3 hPa | 0 mm | 0.89 m/s, 149° | 0 W/m² | - |
| 1778039171 | 25° C | 91% | 1013.3 hPa | 0 mm | 2.24 m/s, 251° | 0 W/m² | - |
| 1778038868 | 25° C | 91% | 1013.2 hPa | 0 mm | 0.89 m/s, 159° | 0 W/m² | - |
| 1778038565 | 25° C | 91% | 1013.4 hPa | 0 mm | 1.34 m/s, 219° | 0 W/m² | - |
| 1778038262 | 25° C | 91% | 1013.3 hPa | 0 mm | 1.34 m/s, 173° | 0 W/m² | - |
| 1778037960 | 25° C | 91% | 1013 hPa | 0 mm | 2.68 m/s, 107° | 0 W/m² | - |
| 1778037656 | 25° C | 91% | 1013.1 hPa | 0 mm | 0.89 m/s, 191° | 0 W/m² | - |
| 1778037354 | 25° C | 91% | 1013 hPa | 0 mm | 0.45 m/s, 111° | 0 W/m² | - |
| 1778037050 | 25° C | 91% | 1012.8 hPa | 0 mm | 1.34 m/s, 220° | 0 W/m² | - |
| 1778036749 | 25° C | 91% | 1013 hPa | 0 mm | 0 m/s | 0 W/m² | - |
| 1778036446 | 25° C | 91% | 1013 hPa | 0 mm | 0 m/s | 0 W/m² | - |
| 1778036142 | 25° C | 91% | 1012.8 hPa | 0 mm | 0.45 m/s, 277° | 0 W/m² | - |
| 1778035838 | 25° C | 91% | 1012.5 hPa | 0 mm | 1.79 m/s, 268° | 0 W/m² | - |
| 1778035536 | 25° C | 91% | 1012.7 hPa | 0 mm | 0.45 m/s, 153° | 0 W/m² | - |
| 1778035232 | 25° C | 91% | 1012.5 hPa | 0 mm | 0.89 m/s, 208° | 0 W/m² | - |
| 1778034928 | 25° C | 91% | 1012.4 hPa | 0 mm | 0.89 m/s, 191° | 0 W/m² | - |
| 1778034635 | 25° C | 91% | 1012.4 hPa | 0 mm | 0 m/s | 0 W/m² | - |
| 1778034323 | 25° C | 91% | 1012.6 hPa | 0 mm | 0.89 m/s, 231° | 0 W/m² | - |
| 1778034021 | 25° C | 91% | 1012.4 hPa | 0 mm | 0.45 m/s, 169° | 0 W/m² | - |
| 1778033718 | 25° C | 91% | 1012.3 hPa | 0 mm | 0.89 m/s, 164° | 0 W/m² | - |
| 1778033415 | 25° C | 91% | 1012.3 hPa | 0 mm | 0 m/s | 0 W/m² | - |
* Rain latest hour (hover to see other rain measurements)
** Current wind speed in m/s (hover to see current wind gust speed)